"Time","Temp","Dewpoint","Humidity","Pressure","Direction","Speed","Gust","Precip","PrecipRate"
"00:04:59","78.4","71.7","80","29.92","268","0","0","0.00","0.00"
"00:09:57","78.2","71.5","80","29.92","268","0","0","0.00","0.00"
"00:14:59","78","71.7","80.9","29.93","268","0","0","0.00","0.00"
"00:19:59","77.7","71.7","81.7","29.93","268","0","0","0.00","0.00"
"00:24:56","77.6","71.7","82","29.93","268","0","0","0.00","0.00"
"00:29:57","77.6","71.7","82","29.93","268","0","0","0.00","0.00"
"00:34:57","77.4","71.8","83","29.93","268","0","0","0.00","0.00"
"00:39:58","77.2","71.8","83.5","29.93","268","0","0","0.00","0.00"
"00:44:59","76.9","71.7","84","29.93","268","0","0","0.00","0.00"
"00:49:56","76.6","71.5","84.3","29.93","268","0","0","0.00","0.00"
"00:54:56","76.4","71.7","85.2","29.93","268","0","0","0.00","0.00"
"00:59:56","76.2","71.7","86","29.93","268","0","0","0.00","0.00"
"01:04:56","76","71.5","86","29.93","268","0","0","0.00","0.00"
"01:09:58","75.9","71.8","87","29.93","268","0","0","0.00","0.00"
"01:14:56","75.7","71.6","87","29.93","268","0","0","0.00","0.00"
"01:19:58","75.6","71.5","87","29.93","268","0","0","0.00","0.00"
"01:24:55","75.4","71.3","87","29.93","268","0","0","0.00","0.00"
"01:29:56","75.3","71.4","87.7","29.93","268","0","0","0.00","0.00"
"01:34:56","75.3","71.5","88","29.93","268","0","0","0.00","0.00"
"01:39:56","75.3","71.5","88","29.93","268","0","0","0.00","0.00"
"01:44:58","75.2","71.4","88","29.93","268","0","0","0.00","0.00"
"01:49:56","75","71.2","88","29.93","268","0","0","0.00","0.00"
"01:54:56","74.8","71","88","29.93","268","0","0","0.00","0.00"
"01:59:56","74.6","70.8","88","29.93","268","0","0","0.00","0.00"
"02:04:56","74.5","70.9","88.6","29.93","268","0","0","0.00","0.00"
"02:09:56","74.4","70.9","89","29.93","268","0","0","0.00","0.00"
"02:14:59","74.2","70.7","89","29.93","268","0","0","0.00","0.00"
"02:19:55","74.1","70.8","89.5","29.93","268","0","0","0.00","0.00"
"02:24:59","74","70.9","90","29.93","268","0","0","0.00","0.00"
"02:29:56","73.9","70.8","90","29.93","268","0","0","0.00","0.00"
"02:34:55","73.8","70.7","90","29.93","268","0","0","0.00","0.00"
"02:39:59","73.7","70.6","90","29.93","268","0","0","0.00","0.00"
"02:44:58","73.5","70.6","90.5","29.94","268","0","0","0.00","0.00"
"02:49:58","73.4","70.6","91","29.94","268","0","0","0.00","0.00"
"02:54:59","73.3","70.5","91","29.94","268","0","0","0.00","0.00"
"02:59:59","73.5","70.7","91","29.94","268","0","0","0.00","0.00"
"03:04:58","73.6","70.8","91","29.94","268","0","0","0.00","0.00"
"03:09:57","73.7","70.9","91","29.94","268","0","0","0.00","0.00"
"03:14:59","73.7","70.9","91","29.94","268","0","0","0.00","0.00"
"03:19:58","73.6","70.8","91","29.94","268","0","0","0.00","0.00"
"03:24:58","73.5","70.7","91","29.94","268","0","0","0.00","0.00"
"03:29:56","73.3","70.5","91","29.94","268","0","0","0.00","0.00"
"03:34:59","73.2","70.4","91","29.94","268","0","0","0.00","0.00"
"03:39:56","73.1","70.5","91.8","29.94","268","0","0","0.00","0.00"
"03:44:58","73","70.6","92.2","29.94","268","0","0","0.00","0.00"
"03:49:58","73.1","70.6","92","29.94","268","0","0","0.00","0.00"
"03:54:57","73","70.5","92","29.94","268","0","0","0.00","0.00"
"03:59:56","73","70.5","92","29.94","268","0","0","0.00","0.00"
"04:04:56","72.8","70.3","92","29.94","268","0","0","0.00","0.00"
"04:09:59","72.6","70.1","92","29.94","268","0","0","0.00","0.00"
"04:14:55","72.5","70","92","29.94","268","0","0","0.00","0.00"
"04:19:57","72.4","70.1","92.6","29.94","268","0","0","0.00","0.00"
"04:24:56","72.3","70.2","93","29.94","268","0","0","0.00","0.00"
"04:29:57","72.1","70.2","93.5","29.94","273","0","1","0.00","0.00"
"04:34:59","72.1","70.3","94","29.94","273","0","0","0.00","0.00"
"04:39:57","72","70.1","93.5","29.94","273","0","0","0.00","0.00"
"04:44:56","72","69.9","93.1","29.94","317","0","1.2","0.00","0.00"
"04:49:56","72.2","70.3","93.5","29.94","318","0","1.2","0.00","0.00"
"04:54:56","72.5","70.4","93","29.94","318","0","1","0.00","0.00"
"04:59:58","72.7","70.3","92.3","29.95","318","0","1","0.00","0.00"
"05:04:57","72.9","70.4","92","29.95","318","0","1.2","0.00","0.00"
"05:09:56","73","70.5","92","29.95","318","0","0","0.00","0.00"
"05:14:58","73.1","70.6","92","29.95","318","0","1.2","0.00","0.00"
"05:19:57","73.2","70.5","91.4","29.95","318","0","1.2","0.00","0.00"
"05:24:59","73.4","70.6","91","29.95","318","0","1.2","0.00","0.00"
"05:29:57","73.6","70.7","90.6","29.95","318","0","1.2","0.00","0.00"
"05:34:59","73.7","70.6","90","29.95","350","0","1","0.00","0.00"
"05:39:56","73.7","70.6","90","29.95","348","0","1.2","0.00","0.00"
"05:44:58","73.7","70.6","90","29.95","348","0","1.2","0.00","0.00"
"05:49:56","73.7","70.6","90","29.95","348","0","0","0.00","0.00"
"05:54:58","73.6","70.5","90","29.95","348","0","0","0.00","0.00"
"05:59:56","73.7","70.4","89.6","29.96","348","0","1.2","0.00","0.00"
"06:04:59","73.7","70.3","89","29.96","348","0","1.2","0.00","0.00"
"06:09:56","73.7","70.3","89","29.96","348","0","1.2","0.00","0.00"
"06:14:56","73.6","70.3","89.3","29.97","348","0","1.2","0.00","0.00"
"06:19:57","73.5","70.4","90","29.97","343","0.2","3.5","0.00","0.00"
"06:24:59","73.3","70.5","91","29.97","343","0.3","3.5","0.00","0.00"
"06:29:58","73.2","70.4","91","29.98","344","0.1","3.5","0.00","0.00"
"06:34:58","73.1","70.3","91","29.98","344","0","0","0.00","0.00"
"06:39:55","73","70.2","91","29.98","344","0","0","0.00","0.00"
"06:44:58","72.8","70","91","29.98","344","0","0","0.00","0.00"
"06:49:57","72.7","70.1","91.7","29.98","344","0","0","0.00","0.00"
"06:54:56","72.6","69.9","91.4","29.98","344","0","0","0.00","0.00"
"06:59:58","72.5","70","92","29.99","344","0","0","0.00","0.00"
"07:04:58","72.5","70","92","29.99","344","0","0","0.00","0.00"
"07:09:57","72.5","70","92","29.99","344","0","0","0.00","0.00"
"07:14:57","72.7","70.2","92","29.99","344","0","0","0.00","0.00"
"07:19:58","72.9","70.4","92","29.99","344","0","0","0.00","0.00"
"07:24:57","72.9","70.4","92","29.99","344","0","0","0.00","0.00"
"07:29:59","73","70.6","92.3","30.00","344","0","0","0.00","0.00"
"07:34:58","73.1","70.9","92.9","30.00","344","0","0","0.00","0.00"
"07:39:58","73.3","70.8","92","30.00","344","0","0","0.00","0.00"
"07:44:57","73.6","71.2","92.4","30.00","344","0","0","0.00","0.00"
"07:49:56","73.9","71.2","91.4","30.00","344","0","1.2","0.00","0.00"
"07:54:58","74.3","71.4","90.6","30.00","344","0","0","0.00","0.00"
"07:59:58","74.9","71.8","90","30.01","344","0.2","2.3","0.00","0.00"
"08:04:56","75.3","71.8","89","30.01","344","0","1.2","0.00","0.00"
"08:09:59","75.8","71.9","87.9","30.01","331","0.2","2.3","0.00","0.00"
"08:14:55","76.3","72","86.7","30.01","271","0","2.3","0.00","0.00"
"08:19:57","76.7","72.3","86.4","30.01","238","0.1","3","0.00","0.00"
"08:24:56","77.1","72.8","86.4","30.01","245","0.5","3.5","0.00","0.00"
"08:29:58","77.6","73.1","86.1","30.01","247","1.5","3.5","0.00","0.00"
"08:34:56","77.9","72.9","84.7","30.01","255","1.5","4","0.00","0.00"
"08:39:57","78.1","72.9","84","30.01","280","1.2","3.5","0.00","0.00"
"08:44:58","78.4","72.9","83.1","30.02","325","1.3","4","0.00","0.00"
"08:49:56","78.8","73.1","82.9","30.02","224","1","4","0.00","0.00"
"08:54:58","79.1","73.1","82.1","30.02","278","1.2","5","0.00","0.00"
"08:59:57","79.4","73.2","81.4","30.02","327","1.5","5","0.00","0.00"
"09:04:55","79.8","73.3","80.7","30.02","314","1.3","4.6","0.00","0.00"
"09:09:58","80.2","73.7","80.4","30.02","286","1.1","4","0.00","0.00"
"09:14:59","80.6","73.3","78.5","30.03","279","2.1","4","0.00","0.00"
"09:19:56","81","73.5","78","30.03","318","1.2","3.5","0.00","0.00"
"09:24:59","81.4","73.5","77.2","30.03","257","1.7","5","0.00","0.00"
"09:29:59","81.6","73.7","77","30.03","301","2.1","6","0.00","0.00"
"09:34:57","81.7","73.3","75.8","30.03","311","3","10.4","0.00","0.00"
"09:39:56","81.6","72.5","74","30.03","326","3.5","10.4","0.00","0.00"
"09:44:55","81.7","73.4","76","30.03","259","1.6","5","0.00","0.00"
"09:49:56","82.1","73.1","74.4","30.03","340","2.7","12","0.00","0.00"
"09:54:56","82.3","72.7","72.6","30.03","325","3.5","12","0.00","0.00"
"09:59:59","82.4","72.1","71.1","30.04","328","3.2","11.5","0.00","0.00"
"10:04:57","82.6","72.4","71.5","30.04","343","3.5","11.5","0.00","0.00"
"10:09:59","82.8","72.9","72.2","30.04","321","2","4.6","0.00","0.00"
"10:14:59","83.3","72.8","70.8","30.04","329","3.1","11","0.00","0.00"
"10:19:58","83.6","73.1","70.9","30.04","338","2.1","6","0.00","0.00"
"10:24:59","83.8","73","70","30.04","312","3","10","0.00","0.00"
"10:29:58","84","73.4","70.6","30.04","251","2","6","0.00","0.00"
"10:34:57","84.2","73.3","69.9","30.04","271","2.6","8","0.00","0.00"
"10:39:56","84.1","72.8","69.1","30.04","280","2.9","8.1","0.00","0.00"
"10:44:57","84.1","72.6","68.6","30.04","288","1.8","7","0.00","0.00"
"10:49:58","84.3","72.6","68","30.04","344","2.9","7","0.00","0.00"
"10:54:58","84.6","72.8","67.8","30.04","348","1.7","5","0.00","0.00"
"10:59:59","84.8","72.9","67.6","30.04","342","2.4","9.2","0.00","0.00"
"11:04:57","84.8","72.2","66.2","30.04","336","3.9","11.5","0.00","0.00"
"11:09:56","84.7","72.4","66.8","30.04","344","2.5","10.4","0.00","0.00"
"11:14:59","84.9","73.1","67.8","30.04","315","2","9","0.00","0.00"
"11:19:59","85.2","73.3","67.8","30.04","335","1.1","5","0.00","0.00"
"11:24:57","85.5","73.2","67","30.04","348","2.4","10.4","0.00","0.00"
"11:29:57","85.8","72.6","64.8","30.04","346","0.6","5","0.00","0.00"
"11:34:58","85.9","72.3","63.9","30.04","337","2.8","7","0.00","0.00"
"11:39:59","86","73.3","66","30.04","252","1.4","5","0.00","0.00"
"11:44:56","86.1","73","65","30.04","312","1.6","4.6","0.00","0.00"
"11:49:58","86.3","73.7","66.3","30.04","248","1.8","4","0.00","0.00"
"11:54:57","86.6","73.7","65.7","30.04","299","1.1","5","0.00","0.00"
"11:59:58","86.8","73.4","64.7","30.04","292","1.3","7","0.00","0.00"
"12:04:57","86.8","73.2","64","30.04","275","2.2","6","0.00","0.00"
"12:09:59","86.7","73.8","65.5","30.04","232","1.5","4.6","0.00","0.00"
"12:14:59","87.1","73.7","64.6","30.04","336","2.1","7","0.00","0.00"
"12:19:56","87","73","63.2","30.04","348","2.2","10","0.00","0.00"
"12:24:56","87","73","63.2","30.04","343","1.6","4.6","0.00","0.00"
"12:29:58","87","73.1","63.5","30.04","283","1.5","5","0.00","0.00"
"12:34:58","87.3","73.9","64.6","30.03","245","1.9","5","0.00","0.00"
"12:39:59","87.6","73.5","63.2","30.03","261","1.9","4.6","0.00","0.00"
"12:44:57","87.7","72.9","61.5","30.03","302","1.3","5","0.00","0.00"
"12:49:58","87.8","72.7","61.1","30.03","328","2","6","0.00","0.00"
"12:54:58","87.6","72.6","61.2","30.03","325","0.8","5","0.00","0.00"
"12:59:55","88","73.8","63","30.03","328","0.9","4.6","0.00","0.00"
"13:04:57","88.4","73.4","61.4","30.03","289","2.3","5","0.00","0.00"
"13:09:59","88.5","73","60.6","30.03","205","1.9","5","0.00","0.00"
"13:14:56","88.5","73.1","60.6","30.03","220","2.9","7","0.00","0.00"
"13:19:57","88.6","73.5","61.2","30.02","206","3","8.1","0.00","0.00"
"13:24:58","88.8","74","61.8","30.02","233","1.6","10","0.00","0.00"
"13:29:57","89.1","72.6","58.3","30.02","328","1.6","6.9","0.00","0.00"
"13:34:59","89.3","72.8","58.3","30.02","295","2.2","6","0.00","0.00"
"13:39:58","89.5","72.1","56.8","30.02","241","1.7","5","0.00","0.00"
"13:44:59","89.6","72.3","56.9","30.02","295","2.5","7","0.00","0.00"
"13:49:56","89.7","72.4","56.9","30.02","345","3.2","10","0.00","0.00"
"13:54:57","89.8","72.9","57.6","30.02","292","2.2","7","0.00","0.00"
"13:59:58","89.9","72","55.7","30.02","327","2.7","8.1","0.00","0.00"
"14:04:56","90","71.6","55","30.02","232","1.2","4.6","0.00","0.00"
"14:09:58","90.1","73","57.3","30.02","257","1.4","4","0.00","0.00"
"14:14:59","90.6","72.1","54.9","30.02","289","2","5","0.00","0.00"
"14:19:56","90.6","70.9","52.6","30.02","337","2.7","6","0.00","0.00"
"14:24:56","90.6","71.6","53.8","30.02","315","2.1","7","0.00","0.00"
"14:29:56","90.7","70.6","51.9","30.02","218","3","7","0.00","0.00"
"14:34:56","90.9","71.2","52.6","30.01","271","1.9","6","0.00","0.00"
"14:39:56","91","70.6","51.4","30.01","237","2.5","6","0.00","0.00"
"14:44:57","91.1","71.1","52.2","30.01","317","0.4","5","0.00","0.00"
"14:49:59","91","70.3","50.9","30.01","285","2","5","0.00","0.00"
"14:54:57","91.1","70.4","50.8","30.01","231","2.6","5","0.00","0.00"
"14:59:58","91.1","70.6","51.2","30.01","279","2.5","5","0.00","0.00"
"15:04:56","91.1","71","52","30.01","329","3.1","10.4","0.00","0.00"
"15:09:58","91.3","70.2","50.4","30.01","328","2.6","8.1","0.00","0.00"
"15:14:59","91.4","70.7","50.9","30.01","327","1.3","5","0.00","0.00"
"15:19:56","91.6","70.3","50","30.01","320","2.2","6","0.00","0.00"
"15:24:57","91.8","70.1","49.4","30.01","328","1.9","6","0.00","0.00"
"15:29:58","92","69.6","48.1","30.01","340","1.7","5.8","0.00","0.00"
"15:34:59","91.9","69.3","47.8","30.00","318","1.7","5","0.00","0.00"
"15:39:59","92","70","48.7","30.00","336","1.6","5","0.00","0.00"
"15:44:57","92.1","69.2","47.3","30.00","322","1.8","4","0.00","0.00"
"15:49:59","92.2","70.5","49.3","30.00","280","2.3","5","0.00","0.00"
"15:54:59","92.2","69.6","47.9","30.00","240","1.7","3.5","0.00","0.00"
"15:59:57","92.6","70.4","48.6","30.00","251","1.3","7","0.00","0.00"
"16:04:56","92.8","68.7","45.5","29.99","323","3.1","6.9","0.00","0.00"
"16:09:58","92.7","68.9","46","29.99","290","1.8","5.8","0.00","0.00"
"16:14:59","92.7","69.1","46.4","29.99","310","1.6","5","0.00","0.00"
"16:19:56","92.7","69.4","46.8","29.99","258","2.1","5","0.00","0.00"
"16:24:59","92.8","70.4","48.3","29.99","283","1.8","4.6","0.00","0.00"
"16:29:56","93.1","70.3","47.7","29.99","287","1.2","3.5","0.00","0.00"
"16:34:58","93.2","70.4","47.7","29.99","298","1.3","3.5","0.00","0.00"
"16:39:55","93.2","69.8","46.7","29.99","253","0.7","3.5","0.00","0.00"
"16:44:57","93.3","70.2","47.3","29.99","190","1.9","5","0.00","0.00"
"16:49:59","93.3","71.3","49.1","29.99","186","1.9","4","0.00","0.00"
"16:54:56","93.4","71.2","48.6","29.99","196","2.2","5","0.00","0.00"
"16:59:59","93.4","70.3","47.2","29.99","199","2","5","0.00","0.00"
"17:04:58","93.4","71.1","48.6","29.99","210","1.8","4.6","0.00","0.00"
"17:09:56","93.3","69.8","46.5","29.99","218","2.1","4","0.00","0.00"
"17:14:59","93.1","70","47.2","29.99","181","0.6","3","0.00","0.00"
"17:19:56","93","69.8","47.1","29.99","182","1.7","4","0.00","0.00"
"17:24:59","93.1","70.3","47.7","29.99","184","2.4","4","0.00","0.00"
"17:29:56","93.2","70.5","47.8","29.99","185","1.7","4","0.00","0.00"
"17:34:57","93.3","70.4","47.5","29.99","186","1.6","3.5","0.00","0.00"
"17:39:58","93.3","69.5","46.1","29.99","274","1.9","4","0.00","0.00"
"17:44:59","93.3","69","45.5","29.99","240","1","3.5","0.00","0.00"
"17:49:59","93.3","70.7","48","29.99","235","1.3","4","0.00","0.00"
"17:54:59","93.1","69.5","46.3","29.99","228","1.5","3.5","0.00","0.00"
"17:59:57","92.8","69.3","46.6","29.99","245","1.8","4","0.00","0.00"
"18:04:56","92.7","69.5","47","29.99","230","1.3","3.5","0.00","0.00"
"18:09:59","92.8","69.3","46.6","29.99","213","1.1","3","0.00","0.00"
"18:14:59","92.8","70.3","48.1","29.99","213","0.4","3.5","0.00","0.00"
"18:19:56","93.1","70.2","47.5","29.98","213","0.8","2.3","0.00","0.00"
"18:24:58","93.1","69.9","47.1","29.98","213","1","2.3","0.00","0.00"
"18:29:59","93","69.4","46.4","29.98","213","1.4","2.3","0.00","0.00"
"18:34:59","92.7","70.8","49.2","29.98","213","0.9","2.3","0.00","0.00"
"18:39:56","92.2","73.2","54.1","29.98","213","0.9","2.3","0.00","0.00"
"18:44:56","91.6","71.1","51.5","29.99","213","0.5","1.2","0.00","0.00"
"18:49:59","91.1","70.5","51","29.99","213","0.4","1.2","0.00","0.00"
"18:54:57","90.9","72.4","54.9","29.99","213","0.1","1.2","0.00","0.00"
"18:59:59","90.4","74.1","58.9","29.99","213","0.1","1.2","0.00","0.00"
"19:04:58","89.5","74","60.3","29.99","213","0","1.2","0.00","0.00"
"19:09:57","88.6","74","62.2","29.99","213","0.3","1.2","0.00","0.00"
"19:14:59","87.6","73.9","64","29.99","213","0.5","2.3","0.00","0.00"
"19:19:59","86.5","73.2","64.6","29.99","213","0.7","2.3","0.00","0.00"
"19:24:58","85.7","73.1","66.2","29.99","213","0.1","1.2","0.00","0.00"
"19:29:55","85","72.9","67.1","29.99","213","0","1.2","0.00","0.00"
"19:34:57","84.4","72.6","67.8","29.99","213","0.3","1.2","0.00","0.00"
"19:39:57","84","72.4","68.1","29.99","213","0","0","0.00","0.00"
"19:44:55","83.8","72","67.7","30.00","213","0.1","1.2","0.00","0.00"
"19:49:56","83.8","72","67.7","30.00","213","0","1.2","0.00","0.00"
"19:54:56","83.6","72.5","69.4","30.00","213","0","1.2","0.00","0.00"
"19:59:58","83.1","71.9","69.1","30.01","213","0","0","0.00","0.00"
"20:04:58","82.4","71.3","69.3","30.01","213","0","0","0.00","0.00"
"20:09:57","81.7","71.4","71.1","30.01","213","0","0","0.00","0.00"
"20:14:56","81","71.7","73.3","30.01","213","0","1.2","0.00","0.00"
"20:19:56","80.6","72","75.2","30.01","213","0.2","1.2","0.00","0.00"
"20:24:56","80.5","72.2","76.1","30.01","213","0","1.2","0.00","0.00"
"20:29:58","80.2","72.3","77","30.01","213","0.3","1.2","0.00","0.00"
"20:34:57","79.8","71.8","76.6","30.01","213","0","0","0.00","0.00"
"20:39:58","79.3","71.5","77","30.01","213","0","0","0.00","0.00"
"20:44:58","79.1","71.8","78.4","30.02","213","0","1","0.00","0.00"
"20:49:58","78.8","72.2","80.2","30.02","213","0.6","1.2","0.00","0.00"
"20:54:57","78.8","72.5","81.1","30.02","213","0.1","1.2","0.00","0.00"
"20:59:57","78.7","72.7","82","30.02","213","0","0","0.00","0.00"
"21:04:57","78.5","72.5","82","30.02","213","0","0","0.00","0.00"
"21:09:56","78.4","72.4","82","30.02","213","0","0","0.00","0.00"
"21:14:56","78","72","81.8","30.02","213","0","0","0.00","0.00"
"21:19:58","77.5","71.8","82.6","30.02","213","0","0","0.00","0.00"
"21:24:58","77.3","72.1","84.2","30.02","213","0","0","0.00","0.00"
"21:29:57","77","71.8","84","30.03","213","0","0","0.00","0.00"
"21:34:58","76.7","71.8","85","30.03","213","0","0","0.00","0.00"
"21:39:58","76.5","72.1","86.2","30.03","213","0","0","0.00","0.00"
"21:44:59","76.5","72.3","87","30.04","213","0","0","0.00","0.00"
"21:49:59","76.4","72.4","87.5","30.04","213","0","0","0.00","0.00"
"21:54:59","76.4","72.4","87.4","30.04","213","0","0","0.00","0.00"
"21:59:59","76.4","72.2","87","30.04","213","0","0","0.00","0.00"
"22:04:56","76.1","71.9","87","30.04","213","0","0","0.00","0.00"
"22:09:59","75.8","71.9","87.5","30.04","213","0","0","0.00","0.00"
"22:14:57","75.6","71.8","88","30.04","213","0","0","0.00","0.00"
"22:19:56","75.3","71.6","88.1","30.04","213","0","0","0.00","0.00"
"22:24:57","75.2","71.7","89","30.04","213","0","0","0.00","0.00"
"22:29:56","75.2","71.7","89","30.04","213","0","0","0.00","0.00"
"22:34:57","75","71.5","89","30.04","213","0","0","0.00","0.00"
"22:39:56","74.8","71.4","89.1","30.04","213","0","0","0.00","0.00"
"22:44:57","74.8","71.6","89.9","30.04","213","0","0","0.00","0.00"
"22:49:57","74.7","71.6","90","30.04","213","0","0","0.00","0.00"
"22:54:56","74.5","71.3","89.8","30.04","213","0","0","0.00","0.00"
"22:59:55","74.3","71.3","90.3","30.05","213","0","0","0.00","0.00"
"23:04:59","74.3","71.5","91","30.05","213","0","0","0.00","0.00"
"23:09:58","74.2","71.4","91","30.05","213","0","0","0.00","0.00"
"23:14:57","74.1","71.3","91","30.05","213","0","0","0.00","0.00"
"23:19:56","73.9","71.1","91","30.05","213","0","0","0.00","0.00"
"23:24:57","73.8","71","91","30.05","213","0","0","0.00","0.00"
"23:29:56","73.6","71","91.8","30.05","213","0","0","0.00","0.00"
"23:34:57","73.5","71","92","30.05","213","0","0","0.00","0.00"
"23:39:57","73.3","70.8","92","30.05","213","0","0","0.00","0.00"
"23:44:57","73.3","71.1","92.7","30.05","213","0","0","0.00","0.00"
"23:49:55","73.3","71.1","92.9","30.05","213","0","0","0.00","0.00"
"23:54:59","73.1","70.6","92","30.05","213","0","0","0.00","0.00"
"23:59:59","73","70.9","92.9","30.06","213","0","0","0.00","0.00"
